Location: Ciochowice
(50.4289°N, 18.5217°E)
Time: 23:31:27
(UTC+01:00)

ISS - Pass Details

Date: 26 January 2019
Orbit: 403 x 411 km, 51.6° (Epoch: 18 February)

Event Time Altitude Azimuth Distance (km) Brightness Sun altitude
Rises 17:37:34 0° 222° (SW) 2,324 1.1 -11.1°
Reaches altitude 10° 17:39:46 10° 212° (SSW) 1,469 -0.3 -11.4°
Maximum altitude 17:42:43 31° 148° (SSE) 744 -2.7 -11.8°
Enters shadow 17:44:28 19° 98° (E) 1,056 -2.3 -12.1°
